sat.trackr.live / text

‹ back to catalog

STARLINK-5109

NORAD 54002 · 2022-125AQ

PAYLOAD ACTIVE UNKNOWN

§ Identity

Operator
Country
US
Launch date
2022-10-05
Launch site
AFWTR
Launch vehicle
Mass (kg)
RCS (m²)

Purposes: comms

External: N2YO · Heavens-Above · Gunter

§ Orbital elements

Epoch: 2026-09-20T14:16:57.129024Z

Period
94.01 min
Inclination
53.1630°
Eccentricity
0.0000982
Mean motion
15.31719137 rev/d
Perigee alt
470.0 km
Apogee alt
471.4 km
Semi-major
6,848.8 km
B*
2.5607e-5
RAAN
33.3318°
Arg perigee
64.2964°
Mean anomaly
295.8138°
Rev number
21,924

§ Raw data

STARLINK-51091 54002U 22125AQ  26263.59510566  .00000430  00000+0  25607-4 0  99992 54002  53.1630  33.3318 0000982  64.2964 295.8138 15.31719137219244

JSON: /api/v1/satellites/54002 · /tle

For live sub-satellite position, see the globe view (requires WebGL).

§ Visibility from observer

Set your observer location to see the next 7 days of passes ≥ 10°. The values pass through the URL so the page stays shareable.

No JS? Fill the form by hand. The geolocation button needs JavaScript.